Weather History for Holdrege, NE

Change the Weather History Date:

Monday, February 18, 2013

  Actual Average Record
Temperature  
Mean Temperature 34 °F -  
Max Temperature 44 °F 44 °F 72 °F (1981)
Min Temperature 25 °F 20 °F -10 °F (1978)
Degree Days  
Heating Degree Days 30    
Moisture  
Dew Point 22 °F    
Average Humidity 55    
Maximum Humidity 69    
Minimum Humidity 36    
Precipitation  
Precipitation 0.00 in - - ()
Sea Level Pressure  
Sea Level Pressure 29.84 in    
Wind  
Wind Speed 21 mph (NNW)    
Max Wind Speed 30 mph    
Max Gust Speed 39 mph    
Visibility 10 miles    
Events      
Averages and records for this station are not official NWS values.
T = Trace of Precipitation, MM = Missing Value Source: NWS Daily Summary

Daily Weather History Graph

Daily Weather History Graph

Search for Another Location

Airport:

Trip Planner

Search our weather history database for the weather conditions in past years. The results will help you decide how hot, cold, wet, or windy it might be!

Date:

Astronomy

Feb. 18, 2013 Rise Set
Actual Time 7:26 AM CST 6:16 PM CST
Civil Twilight 6:58 AM CST 6:44 PM CST
Nautical Twilight 6:26 AM CST 7:16 PM CST
Astronomical Twilight 5:55 AM CST 7:47 PM CST
Moon 12:03 PM CST (2/18) 2:08 AM CST (2/18)
Length of Visible Light 11h 45m
Length of Day
10h 50m
First Quarter, 58% of the Moon is Illuminated
Feb 18
First Quarter
Feb 25
Full
Mar 4
Last Quarter
Mar 11
New
Mar 19
First Quarter

Hourly Weather History & Observations

Time (CST) Temp. Windchill Dew Point Humidity Pressure Visibility Wind Dir Wind Speed Gust Speed Precip Events Conditions
12:15 AM 44.1 °F 35.4 °F 27.9 °F 53% 29.55 in 10.0 mi North 21.9 mph 28.8 mph N/A   Clear
12:35 AM 43.0 °F 33.5 °F 29.1 °F 58% 29.55 in 10.0 mi North 24.2 mph 29.9 mph N/A   Clear
12:55 AM 43.0 °F 33.3 °F 29.5 °F 59% 29.56 in 10.0 mi North 25.3 mph 32.2 mph N/A   Clear
1:15 AM 42.3 °F 33.1 °F 30.2 °F 62% 29.56 in 10.0 mi North 21.9 mph 32.2 mph N/A   Clear
1:35 AM 41.9 °F 31.9 °F 30.0 °F 63% 29.56 in 10.0 mi North 25.3 mph 33.4 mph N/A   Clear
1:55 AM 42.1 °F 31.5 °F 29.3 °F 61% 29.56 in 10.0 mi North 28.8 mph 35.7 mph N/A   Clear
2:15 AM 41.9 °F 31.3 °F 29.3 °F 61% 29.57 in 10.0 mi North 28.8 mph 38.0 mph N/A   Clear
2:35 AM 41.4 °F 30.9 °F 29.8 °F 64% 29.57 in 10.0 mi North 26.5 mph 35.7 mph N/A   Clear
2:55 AM 41.0 °F 30.9 °F 29.3 °F 63% 29.59 in 10.0 mi North 24.2 mph 31.1 mph N/A   Clear
3:15 AM 40.6 °F 31.4 °F 28.4 °F 62% 29.60 in 10.0 mi North 19.6 mph 29.9 mph N/A   Clear
3:35 AM 40.3 °F 31.3 °F 27.5 °F 60% 29.61 in 10.0 mi North 18.4 mph 27.6 mph N/A   Clear
3:55 AM 40.1 °F 31.0 °F 27.1 °F 60% 29.60 in 10.0 mi North 18.4 mph 27.6 mph N/A   Clear
4:15 AM 39.7 °F 30.0 °F 26.6 °F 59% 29.61 in 10.0 mi North 20.7 mph 27.6 mph N/A   Clear
4:35 AM 39.4 °F 29.5 °F 26.6 °F 60% 29.62 in 10.0 mi North 20.7 mph 29.9 mph N/A   Clear
4:55 AM 38.8 °F 28.3 °F 27.0 °F 62% 29.62 in 10.0 mi North 23.0 mph 31.1 mph N/A   Clear
5:15 AM 37.9 °F 27.1 °F 27.5 °F 66% 29.64 in 10.0 mi North 23.0 mph 31.1 mph N/A   Clear
5:35 AM 37.4 °F 25.4 °F 27.1 °F 66% 29.66 in 10.0 mi North 27.6 mph 32.2 mph N/A   Mostly Cloudy
5:55 AM 36.9 °F 25.9 °F 27.1 °F 68% 29.67 in 10.0 mi North 21.9 mph 29.9 mph N/A   Mostly Cloudy
6:15 AM 36.9 °F 25.4 °F 26.6 °F 66% 29.68 in 10.0 mi North 24.2 mph 32.2 mph N/A   Scattered Clouds
6:35 AM 36.7 °F 25.7 °F 26.2 °F 66% 29.70 in 10.0 mi North 21.9 mph 34.5 mph N/A   Mostly Cloudy
6:55 AM 36.5 °F 25.4 °F 26.2 °F 66% 29.72 in 10.0 mi North 21.9 mph 27.6 mph N/A   Scattered Clouds
7:15 AM 36.9 °F 25.4 °F 25.3 °F 63% 29.72 in 10.0 mi North 24.2 mph 34.5 mph N/A   Mostly Cloudy
7:35 AM 36.5 °F 25.2 °F 25.2 °F 64% 29.74 in 10.0 mi NNW 23.0 mph 29.9 mph N/A   Overcast
7:55 AM 36.7 °F 25.7 °F 25.3 °F 64% 29.75 in 10.0 mi North 21.9 mph 29.9 mph N/A   Overcast
8:15 AM 37.0 °F 25.9 °F 25.2 °F 62% 29.76 in 10.0 mi NNW 23.0 mph 29.9 mph N/A   Overcast
8:35 AM 37.4 °F 26.1 °F 23.5 °F 57% 29.77 in 10.0 mi North 24.2 mph 31.1 mph N/A   Overcast
8:55 AM 37.4 °F 26.6 °F 22.6 °F 55% 29.78 in 10.0 mi NNW 21.9 mph 34.5 mph N/A   Mostly Cloudy
9:15 AM 37.8 °F 27.7 °F 22.8 °F 55% 29.79 in 10.0 mi NNW 19.6 mph 35.7 mph N/A   Mostly Cloudy
9:35 AM 37.6 °F 25.2 °F 22.1 °F 54% 29.81 in 10.0 mi NNW 29.9 mph 36.8 mph N/A   Mostly Cloudy
9:55 AM 37.6 °F 25.9 °F 21.9 °F 53% 29.82 in 10.0 mi North 26.5 mph 38.0 mph N/A   Mostly Cloudy
10:35 AM 39.4 °F 29.0 °F 22.6 °F 51% 29.84 in 10.0 mi North 23.0 mph 36.8 mph N/A   Scattered Clouds
10:55 AM 39.4 °F 28.3 °F 21.0 °F 48% 29.86 in 10.0 mi NNW 26.5 mph 39.1 mph N/A   Clear
11:15 AM 40.1 °F 29.5 °F 21.2 °F 47% 29.86 in 10.0 mi North 25.3 mph 29.9 mph N/A   Scattered Clouds
11:35 AM 40.1 °F 29.9 °F 20.3 °F 45% 29.87 in 10.0 mi North 23.0 mph 35.7 mph N/A   Scattered Clouds
11:55 AM 39.6 °F 29.0 °F 19.8 °F 45% 29.89 in 10.0 mi North 24.2 mph 32.2 mph N/A   Clear
12:15 PM 40.3 °F 30.2 °F 19.6 °F 44% 29.89 in 10.0 mi North 23.0 mph 32.2 mph N/A   Clear
12:35 PM 41.5 °F 31.6 °F 19.9 °F 42% 29.90 in 10.0 mi North 24.2 mph 32.2 mph N/A   Clear
12:55 PM 41.2 °F 30.7 °F 18.1 °F 40% 29.90 in 10.0 mi NNW 26.5 mph 38.0 mph N/A   Clear
1:15 PM 40.6 °F 30.7 °F 18.0 °F 40% 29.90 in 10.0 mi NNW 23.0 mph 35.7 mph N/A   Clear
1:35 PM 40.8 °F 30.7 °F 17.8 °F 40% 29.91 in 10.0 mi NNW 24.2 mph 33.4 mph N/A   Clear
1:55 PM 41.0 °F 31.9 °F 18.0 °F 40% 29.91 in 10.0 mi NNW 19.6 mph 29.9 mph N/A   Scattered Clouds
2:15 PM 41.2 °F 32.1 °F 17.4 °F 38% 29.91 in 10.0 mi NNW 19.6 mph 33.4 mph N/A   Scattered Clouds
2:35 PM 41.5 °F 33.5 °F 18.1 °F 39% 29.92 in 10.0 mi NNW 16.1 mph 28.8 mph N/A   Scattered Clouds
2:55 PM 42.4 °F 33.5 °F 17.6 °F 37% 29.92 in 10.0 mi NNW 20.7 mph 29.9 mph N/A   Scattered Clouds
3:15 PM 42.1 °F 33.1 °F 16.9 °F 36% 29.92 in 10.0 mi NNW 20.7 mph 35.7 mph N/A   Scattered Clouds
3:35 PM 41.7 °F 32.6 °F 16.7 °F 36% 29.93 in 10.0 mi North 20.7 mph 29.9 mph N/A   Scattered Clouds
3:55 PM 41.5 °F 31.9 °F 16.7 °F 37% 29.94 in 10.0 mi NW 23.0 mph 32.2 mph N/A   Scattered Clouds
4:15 PM 40.3 °F 31.6 °F 15.8 °F 37% 29.94 in 10.0 mi NNW 17.3 mph 29.9 mph N/A   Scattered Clouds
4:35 PM 40.3 °F 30.7 °F 16.5 °F 38% 29.95 in 10.0 mi North 20.7 mph 31.1 mph N/A   Clear
5:15 PM 37.8 °F 28.6 °F 16.5 °F 42% 29.97 in 10.0 mi North 16.1 mph 24.2 mph N/A   Scattered Clouds
5:35 PM 37.9 °F 29.6 °F 16.5 °F 42% 29.97 in 10.0 mi NNW 13.8 mph 21.9 mph N/A   Clear
5:55 PM 36.5 °F 26.7 °F 16.2 °F 44% 29.98 in 10.0 mi NNW 17.3 mph 23.0 mph N/A   Clear
6:15 PM 34.3 °F 26.5 °F 17.2 °F 50% 29.99 in 10.0 mi North 10.4 mph - N/A   Clear
6:35 PM 32.2 °F 25.0 °F 17.4 °F 55% 30.00 in 10.0 mi North 8.1 mph - N/A   Clear
6:55 PM 32.0 °F 25.6 °F 17.1 °F 54% 30.01 in 10.0 mi NNW 6.9 mph - N/A   Clear
7:15 PM 31.5 °F 25.8 °F 16.7 °F 54% 30.01 in 10.0 mi NNW 5.8 mph - N/A   Clear
7:35 PM 30.2 °F 25.4 °F 16.7 °F 57% 30.02 in 10.0 mi NNW 4.6 mph - N/A   Clear
7:55 PM 31.1 °F 25.4 °F 17.4 °F 57% 30.02 in 10.0 mi NNW 5.8 mph - N/A   Clear
8:15 PM 30.7 °F 24.1 °F 17.2 °F 57% 30.03 in 10.0 mi NNW 6.9 mph - N/A   Clear
8:35 PM 28.2 °F 22.0 °F 16.7 °F 62% 30.03 in 10.0 mi NW 5.8 mph - N/A   Scattered Clouds
8:55 PM 26.6 °F 20.0 °F 16.2 °F 65% 30.04 in 10.0 mi NNW 5.8 mph - N/A   Clear
9:15 PM 26.2 °F 18.6 °F 16.2 °F 66% 30.05 in 10.0 mi NW 6.9 mph - N/A   Clear
9:35 PM 25.7 °F 16.4 °F 16.3 °F 68% 30.05 in 10.0 mi NW 9.2 mph - N/A   Scattered Clouds
9:55 PM 26.1 °F 19.4 °F 17.2 °F 69% 30.06 in 10.0 mi NW 5.8 mph - N/A   Mostly Cloudy
10:15 PM 25.7 °F 18.0 °F 16.9 °F 69% 30.07 in 10.0 mi West 6.9 mph - N/A   Overcast
10:35 PM 28.2 °F 22.0 °F 17.6 °F 64% 30.08 in 10.0 mi WNW 5.8 mph - N/A   Overcast
10:55 PM 28.4 °F 20.4 °F 18.3 °F 66% 30.09 in 10.0 mi NW 8.1 mph - N/A   Overcast
11:15 PM 30.0 °F 22.4 °F 17.8 °F 60% 30.09 in 10.0 mi NW 8.1 mph - N/A   Mostly Cloudy
11:35 PM 28.2 °F 21.0 °F 17.2 °F 63% 30.10 in 10.0 mi NW 6.9 mph - N/A   Scattered Clouds
11:55 PM 27.5 °F 19.3 °F 17.4 °F 66% 30.10 in 10.0 mi NW 8.1 mph - N/A   Clear